[[{"header":{"parameterUnit":"m.s-1","parameterCategory":2,"la1":30.2992,"la2":30.254,"lo1":-89.0895,"lo2":-89.0443,"dy":0.0025,"dx":0.0025,"nx":19,"ny":19,"refTime":"2026-04-25T03:00:00:Z","depth":"0","parameterNumber":2,"parameterNumberName":"U-component_of_CURRENTS"},"data":[0,0,0,-0.1603,-0.1601,-0.1549,-0.1549,-0.1516,-0.1515,0,0,0,0,0,0,0,0,0,0,0,-0.1623,-0.1623,-0.1603,-0.1601,-0.1549,-0.1549,-0.1516,-0.1515,0,0,0,0,0,0,0,0,0,0,0,-0.1623,-0.1623,-0.1622,-0.1601,-0.1549,-0.1549,-0.1516,-0.1547,0,0,0,0,0,0,0,0,0,0,-0.1593,-0.1617,-0.1623,-0.1622,-0.1601,-0.1549,-0.1549,-0.1548,-0.1545,-0.1549,0,-0.1541,0,-0.1527,-0.1514,-0.1514,0,0,0,-0.1601,-0.1619,-0.1596,-0.1622,-0.16,-0.1549,-0.1572,-0.1546,-0.1543,-0.1545,-0.154,-0.1538,-0.1526,-0.1514,-0.1514,-0.1556,-0.1556,0,0,-0.1604,-0.1623,-0.1598,-0.1593,-0.1587,-0.1574,-0.1571,-0.1543,-0.1547,-0.154,-0.1537,-0.1526,-0.1514,-0.1514,-0.1555,-0.1556,0,0,0,-0.1612,-0.1625,-0.1602,-0.1595,-0.1583,-0.1573,-0.1569,-0.1548,-0.1537,-0.1537,-0.1525,-0.1514,-0.1513,-0.1554,-0.1555,-0.1577,0,0,0,-0.1614,-0.163,-0.1603,-0.1615,-0.1583,-0.1562,-0.1574,-0.1539,-0.1535,-0.1526,-0.1514,-0.1513,-0.1554,-0.1555,-0.1575,-0.1578,0,0,0,-0.1625,-0.1631,-0.1623,-0.1616,-0.1592,-0.1562,-0.155,-0.1538,-0.1529,-0.1514,-0.1513,-0.1553,-0.1555,-0.1573,-0.1575,-0.1592,0,0,0,-0.1649,-0.1639,-0.1623,-0.1608,-0.1592,-0.1575,-0.155,-0.1537,-0.1526,-0.1513,-0.1554,-0.1555,-0.1572,-0.1574,-0.159,-0.1482,-0.1481,0,0,-0.1648,-0.164,-0.1628,-0.1613,-0.1585,-0.1582,-0.1588,-0.156,-0.1554,-0.1563,-0.1564,-0.1576,-0.1575,-0.1592,-0.1568,-0.1563,0,0,0,-0.1635,-0.1622,-0.1614,-0.1592,-0.1582,-0.159,-0.1575,-0.1589,-0.1599,-0.1554,-0.16,-0.1599,-0.1608,-0.1541,-0.1538,-0.1261,-0.1562,-0.1562,-0.1562,-0.1674,-0.1639,-0.1613,-0.1579,-0.1581,-0.1599,-0.1622,-0.1644,-0.1625,-0.165,-0.1635,-0.1686,-0.1616,-0.1613,-0.1329,-0.1659,-0.1659,-0.1659,-0.1659,-0.1655,-0.163,-0.1601,-0.1558,-0.1574,-0.1586,-0.1646,-0.1661,-0.1711,-0.1693,-0.17,-0.1589,-0.161,-0.1309,-0.1661,-0.1661,-0.166,-0.166,-0.166,-0.1673,-0.165,-0.1609,-0.1551,-0.1546,-0.1566,-0.1591,-0.1658,-0.1712,-0.1742,-0.1652,-0.165,-0.1367,-0.1734,-0.1734,-0.1735,-0.1735,-0.1735,-0.1735,-0.1706,-0.1658,-0.1603,-0.1542,-0.1507,-0.1498,-0.1563,-0.1601,-0.1647,-0.1668,-0.1667,-0.1343,-0.1709,-0.1686,-0.1736,-0.1736,-0.1736,-0.1736,-0.1736,-0.1702,-0.1681,-0.1596,-0.1544,-0.1452,-0.1388,-0.1456,-0.1481,-0.1552,-0.1553,-0.1242,-0.1632,-0.1612,-0.1612,-0.1587,-0.161,-0.161,-0.161,-0.161,-0.1713,-0.1693,-0.1572,-0.1482,-0.14,-0.1339,-0.1259,-0.1268,-0.1176,-0.1049,-0.1034,-0.0944,-0.0962,-0.0898,-0.0914,-0.0873,-0.0714,-0.0713,-0.0712,-0.1697,-0.1659,-0.1576,-0.1469,-0.1355,-0.1261,-0.1115,-0.0969,-0.0771,-0.065,-0.0667,-0.0705,-0.055,-0.06,-0.0486,-0.0532,-0.0462,0,0]},{"header":{"parameterUnit":"m.s-1","parameterCategory":2,"la1":30.2992,"la2":30.254,"lo1":-89.0895,"lo2":-89.0443,"dy":0.0025,"dx":0.0025,"nx":19,"ny":19,"refTime":"2026-04-25T03:00:00:Z","depth":"0","parameterNumber":3,"parameterNumberName":"V-component_of_CURRENTS"},"data":[0,0,0,-0.0675,-0.0675,-0.0652,-0.0652,-0.058,-0.058,0,0,0,0,0,0,0,0,0,0,0,-0.0684,-0.0685,-0.0675,-0.0675,-0.0652,-0.0652,-0.058,-0.058,0,0,0,0,0,0,0,0,0,0,0,-0.0684,-0.0685,-0.0685,-0.0675,-0.0652,-0.0652,-0.0581,-0.0604,0,0,0,0,0,0,0,0,0,0,-0.063,-0.0651,-0.0685,-0.0685,-0.0675,-0.0652,-0.0652,-0.0606,-0.0603,-0.0584,0,-0.0596,0,-0.0593,-0.0576,-0.0576,0,0,0,-0.0658,-0.0654,-0.0651,-0.0685,-0.0675,-0.0652,-0.0657,-0.0604,-0.0601,-0.058,-0.0595,-0.0593,-0.0592,-0.0575,-0.0575,-0.0576,-0.0577,0,0,-0.0659,-0.0671,-0.0654,-0.065,-0.0688,-0.0658,-0.0657,-0.0602,-0.0604,-0.0595,-0.0591,-0.059,-0.0575,-0.0574,-0.0576,-0.0576,0,0,0,-0.0674,-0.0672,-0.0671,-0.0652,-0.0655,-0.0658,-0.0657,-0.0606,-0.0608,-0.059,-0.059,-0.0575,-0.0574,-0.0575,-0.0576,-0.0674,0,0,0,-0.0674,-0.0682,-0.0672,-0.0677,-0.0657,-0.0637,-0.0662,-0.0611,-0.0605,-0.059,-0.0575,-0.0573,-0.0575,-0.0576,-0.0671,-0.0724,0,0,0,-0.0682,-0.0683,-0.0687,-0.0678,-0.0677,-0.0638,-0.0635,-0.061,-0.0605,-0.0575,-0.0573,-0.0574,-0.0575,-0.0667,-0.0717,-0.075,0,0,0,-0.0684,-0.0713,-0.0688,-0.072,-0.0677,-0.0697,-0.0635,-0.0629,-0.061,-0.0574,-0.0575,-0.0576,-0.0666,-0.0714,-0.0747,-0.0855,-0.0881,0,0,-0.0723,-0.0718,-0.0738,-0.0715,-0.0756,-0.0698,-0.0734,-0.0674,-0.0619,-0.0585,-0.0585,-0.0672,-0.0717,-0.075,-0.092,-0.0944,0,0,0,-0.0752,-0.077,-0.0777,-0.0794,-0.0792,-0.0807,-0.0748,-0.0719,-0.0685,-0.0617,-0.0667,-0.0692,-0.071,-0.0767,-0.0786,-0.0594,-0.0581,-0.0581,-0.0581,-0.0798,-0.0808,-0.0853,-0.0871,-0.0887,-0.0872,-0.0871,-0.0822,-0.0751,-0.0751,-0.0769,-0.0858,-0.0921,-0.0937,-0.0737,-0.0758,-0.0759,-0.0759,-0.0759,-0.0863,-0.0897,-0.0917,-0.0965,-0.0984,-0.1008,-0.0987,-0.0945,-0.0925,-0.0855,-0.0866,-0.0864,-0.0964,-0.0743,-0.0765,-0.0764,-0.0764,-0.0763,-0.0763,-0.0899,-0.0922,-0.0948,-0.1019,-0.1079,-0.109,-0.1139,-0.1096,-0.1022,-0.104,-0.1062,-0.1061,-0.0868,-0.1031,-0.1031,-0.1032,-0.1032,-0.1032,-0.1033,-0.0923,-0.0955,-0.1012,-0.1078,-0.1129,-0.1193,-0.1223,-0.1236,-0.1237,-0.1186,-0.1186,-0.0887,-0.094,-0.0931,-0.1039,-0.1038,-0.1037,-0.1036,-0.1036,-0.098,-0.0977,-0.1073,-0.1127,-0.1239,-0.1318,-0.1346,-0.1428,-0.1426,-0.1449,-0.112,-0.1253,-0.1228,-0.1213,-0.121,-0.1383,-0.1383,-0.1383,-0.1383,-0.1,-0.1011,-0.1133,-0.1228,-0.1323,-0.1383,-0.1501,-0.1565,-0.1419,-0.1297,-0.1149,-0.1084,-0.1078,-0.1036,-0.1025,-0.1013,-0.1132,-0.1132,-0.1131,-0.1031,-0.1071,-0.1165,-0.1259,-0.1365,-0.1451,-0.156,-0.1656,-0.1415,-0.1091,-0.0856,-0.0867,-0.0734,-0.0741,-0.0643,-0.0642,-0.0612,0,0]}],[{"header":{"parameterUnit":"m.s-1","parameterCategory":2,"la1":30.2992,"la2":30.254,"lo1":-89.0895,"lo2":-89.0443,"dy":0.0025,"dx":0.0025,"nx":19,"ny":19,"refTime":"2026-04-25T03:00:00:Z","depth":"2","parameterNumber":2,"parameterNumberName":"U-component_of_CURRENTS"},"data":[0,0,0,-0.0585,-0.0588,-0.0719,-0.0719,-0.074,-0.074,0,0,0,0,0,0,0,0,0,0,0,-0.0536,-0.0537,-0.0585,-0.0588,-0.0719,-0.0719,-0.074,-0.074,0,0,0,0,0,0,0,0,0,0,0,-0.0535,-0.0536,-0.0538,-0.0589,-0.0719,-0.0719,-0.074,-0.0676,0,0,0,0,0,0,0,0,0,0,-0.0567,-0.0536,-0.0536,-0.0538,-0.0589,-0.0718,-0.0719,-0.0675,-0.068,-0.0641,0,-0.067,0,-0.0707,-0.0739,-0.0738,0,0,0,-0.0582,-0.0532,-0.0578,-0.0538,-0.0591,-0.0718,-0.0658,-0.0679,-0.0685,-0.0647,-0.0671,-0.0673,-0.0707,-0.0738,-0.0738,-0.0863,-0.0864,0,0,-0.0575,-0.0544,-0.0574,-0.0582,-0.0633,-0.0654,-0.0662,-0.0684,-0.0683,-0.0671,-0.0675,-0.0707,-0.0738,-0.0738,-0.0861,-0.0863,0,0,0,-0.0558,-0.0539,-0.0587,-0.0579,-0.0616,-0.0658,-0.0667,-0.0683,-0.0703,-0.0675,-0.0708,-0.0738,-0.0738,-0.0859,-0.0862,-0.0995,0,0,0,-0.0554,-0.0531,-0.0584,-0.0565,-0.0617,-0.0669,-0.0665,-0.0701,-0.0706,-0.0708,-0.0738,-0.0738,-0.0858,-0.0861,-0.0988,-0.0986,0,0,0,-0.0528,-0.0527,-0.0548,-0.0563,-0.0625,-0.0671,-0.0692,-0.0704,-0.0724,-0.0738,-0.0738,-0.0857,-0.086,-0.0981,-0.0978,-0.0985,0,0,0,-0.0484,-0.0556,-0.0548,-0.0648,-0.0624,-0.0779,-0.0693,-0.0778,-0.0805,-0.0738,-0.0858,-0.0862,-0.0979,-0.0972,-0.0981,-0.0552,-0.0539,0,0,-0.056,-0.0564,-0.0632,-0.0629,-0.0779,-0.076,-0.0914,-0.089,-0.0841,-0.0834,-0.0839,-0.099,-0.0977,-0.0984,-0.0762,-0.074,0,0,0,-0.0649,-0.0689,-0.0739,-0.0817,-0.0907,-0.0971,-0.0989,-0.1,-0.1022,-0.0875,-0.1026,-0.1013,-0.1013,-0.0748,-0.0733,-0.0879,-0.0878,-0.0878,-0.0878,-0.0663,-0.0744,-0.0851,-0.0952,-0.1039,-0.1129,-0.1186,-0.1194,-0.1148,-0.1191,-0.1152,-0.1282,-0.1007,-0.0989,-0.1216,-0.1217,-0.1217,-0.1218,-0.1218,-0.0757,-0.0814,-0.0906,-0.1036,-0.1115,-0.1227,-0.1331,-0.1334,-0.1378,-0.1325,-0.132,-0.0938,-0.0979,-0.123,-0.1227,-0.1226,-0.1225,-0.1224,-0.1223,-0.0738,-0.0776,-0.086,-0.1002,-0.1119,-0.1238,-0.1269,-0.138,-0.1438,-0.1473,-0.1103,-0.1094,-0.1287,-0.1455,-0.1455,-0.1455,-0.1455,-0.1455,-0.1456,-0.066,-0.0753,-0.0802,-0.0958,-0.0997,-0.1077,-0.1217,-0.1217,-0.118,-0.1166,-0.1162,-0.1359,-0.1351,-0.1299,-0.1457,-0.1457,-0.1457,-0.1457,-0.1456,-0.0641,-0.0644,-0.0703,-0.0736,-0.0811,-0.0725,-0.0861,-0.0716,-0.0791,-0.0678,-0.0974,-0.0985,-0.087,-0.0875,-0.081,-0.0832,-0.0832,-0.0832,-0.0832,-0.0558,-0.0592,-0.0587,-0.0577,-0.0549,-0.0552,-0.0219,-0.0114,-0.0239,-0.0314,-0.0338,-0.021,-0.0243,-0.0089,-0.0112,-0.003,0.015,0.0151,0.0152,-0.0504,-0.0509,-0.0463,-0.0477,-0.0422,-0.0272,0.0117,0.0372,0.0303,0.0174,-0.0335,-0.0734,-0.0602,-0.0633,-0.0438,-0.046,-0.0345,0,0]},{"header":{"parameterUnit":"m.s-1","parameterCategory":2,"la1":30.2992,"la2":30.254,"lo1":-89.0895,"lo2":-89.0443,"dy":0.0025,"dx":0.0025,"nx":19,"ny":19,"refTime":"2026-04-25T03:00:00:Z","depth":"2","parameterNumber":3,"parameterNumberName":"V-component_of_CURRENTS"},"data":[0,0,0,0.057,0.0568,0.0504,0.0504,0.0563,0.0564,0,0,0,0,0,0,0,0,0,0,0,0.0583,0.0581,0.057,0.0567,0.0504,0.0504,0.0563,0.0564,0,0,0,0,0,0,0,0,0,0,0,0.0583,0.0582,0.058,0.0567,0.0504,0.0504,0.0563,0.058,0,0,0,0,0,0,0,0,0,0,0.0626,0.0604,0.0582,0.058,0.0567,0.0504,0.0504,0.058,0.0579,0.0627,0,0.059,0,0.0577,0.057,0.057,0,0,0,0.0585,0.0604,0.0592,0.058,0.0566,0.0504,0.0538,0.0579,0.0578,0.0627,0.0591,0.0592,0.0578,0.057,0.0571,0.0693,0.0694,0,0,0.0589,0.0576,0.0592,0.0591,0.0517,0.0539,0.0535,0.0577,0.0563,0.0591,0.0593,0.0579,0.0571,0.0571,0.0692,0.0693,0,0,0,0.0587,0.0579,0.0564,0.0589,0.0565,0.0537,0.0532,0.0561,0.0556,0.0593,0.058,0.0571,0.0572,0.0691,0.0692,0.0631,0,0,0,0.059,0.0577,0.0564,0.0558,0.0563,0.0541,0.0516,0.0553,0.0557,0.058,0.0571,0.0573,0.0691,0.0692,0.0631,0.0582,0,0,0,0.0591,0.0577,0.056,0.0557,0.0523,0.054,0.0537,0.0553,0.055,0.057,0.0573,0.069,0.0692,0.0631,0.0583,0.0536,0,0,0,0.0597,0.053,0.0559,0.0496,0.0523,0.0524,0.0536,0.0527,0.0539,0.0572,0.0691,0.0692,0.0631,0.0584,0.0538,0.0495,0.0485,0,0,0.0518,0.052,0.049,0.0514,0.0486,0.0536,0.0557,0.0561,0.0593,0.0688,0.069,0.0631,0.0583,0.0537,0.0594,0.058,0,0,0,0.0471,0.0439,0.044,0.0426,0.0458,0.0508,0.0541,0.0592,0.064,0.0604,0.0684,0.0656,0.0627,0.0608,0.0598,0.07,0.07,0.07,0.07,0.0351,0.0378,0.034,0.0379,0.0407,0.0497,0.0548,0.0634,0.0658,0.0686,0.0645,0.0621,0.0604,0.0595,0.0705,0.0704,0.0704,0.0704,0.0704,0.0239,0.0225,0.028,0.0244,0.0347,0.0385,0.0551,0.0586,0.0647,0.0684,0.0658,0.0595,0.0579,0.07,0.0701,0.0701,0.0702,0.0702,0.0702,0.0168,0.0169,0.0144,0.0141,0.0188,0.0301,0.0363,0.0466,0.0555,0.0548,0.0494,0.0495,0.0531,0.0502,0.0501,0.0501,0.0501,0.05,0.05,0.0111,0.0098,0.0043,0.0047,0.0051,0.0099,0.023,0.0279,0.0342,0.0418,0.0418,0.0552,0.0559,0.0522,0.0494,0.0495,0.0496,0.0496,0.0497,0.005,0.0022,-0.0052,-0.0079,-0.0067,-0.0038,0.0062,0.0134,0.0181,0.0203,0.0367,0.0372,0.0377,0.0387,0.0348,0.0276,0.0276,0.0276,0.0276,0.0012,-0.0006,-0.0113,-0.0157,-0.0164,-0.009,-0.0039,0.0126,0.024,0.0352,0.035,0.0411,0.0417,0.0429,0.0439,0.0403,0.0346,0.0346,0.0347,-0.0011,-0.0051,-0.0121,-0.0191,-0.0206,-0.0153,-0.0061,0.021,0.0442,0.0358,0.0449,0.0264,0.0349,0.036,0.0379,0.0393,0.0336,0,0]}],[{"header":{"parameterUnit":"m.s-1","parameterCategory":2,"la1":30.2992,"la2":30.254,"lo1":-89.0895,"lo2":-89.0443,"dy":0.0025,"dx":0.0025,"nx":19,"ny":19,"refTime":"2026-04-25T03:00:00:Z","depth":"4","parameterNumber":2,"parameterNumberName":"U-component_of_CURRENTS"},"data":[0,0,0,-0.0072,-0.0075,-0.0305,-0.0307,-0.0708,-0.0711,0,0,0,0,0,0,0,0,0,0,0,-0.0006,-0.0006,-0.0072,-0.0075,-0.0305,-0.0307,-0.0708,-0.0711,0,0,0,0,0,0,0,0,0,0,0,-0.0006,-0.0006,-0.0007,-0.0076,-0.0305,-0.0307,-0.0707,-0.0524,0,0,0,0,0,0,0,0,0,0,-0.0294,-0.0183,-0.0006,-0.0007,-0.0077,-0.0304,-0.0308,-0.0514,-0.0535,-0.0612,0,-0.0609,0,-0.0635,-0.0734,-0.0735,0,0,0,-0.0146,-0.0165,-0.022,-0.0007,-0.0078,-0.0304,-0.0222,-0.0526,-0.0549,-0.064,-0.0615,-0.0629,-0.0642,-0.0736,-0.0738,-0.096,-0.096,0,0,-0.0133,-0.0073,-0.0203,-0.0233,-0.009,-0.0213,-0.0228,-0.0539,-0.055,-0.0616,-0.0638,-0.0648,-0.0738,-0.0741,-0.096,-0.096,0,0,0,-0.0049,-0.0063,-0.0111,-0.0217,-0.0232,-0.0218,-0.0235,-0.0537,-0.0549,-0.0642,-0.0653,-0.074,-0.0745,-0.096,-0.096,-0.0871,0,0,0,-0.0045,-0.001,-0.0104,-0.0075,-0.0223,-0.0368,-0.0225,-0.0529,-0.0563,-0.0651,-0.0741,-0.0748,-0.0961,-0.096,-0.0873,-0.0814,0,0,0,-0.0004,-0.0006,-0.0016,-0.007,-0.0136,-0.0363,-0.0397,-0.0538,-0.0568,-0.0735,-0.0749,-0.0961,-0.096,-0.0876,-0.0819,-0.077,0,0,0,0.0037,0.0033,-0.0014,-0.0029,-0.0132,-0.0263,-0.0395,-0.0569,-0.0711,-0.0742,-0.096,-0.096,-0.0876,-0.0822,-0.0773,-0.0687,0,0,0,0.005,0.0036,0.0024,-0.0022,-0.0099,-0.0239,-0.0362,-0.0622,-0.0726,-0.0879,-0.0884,-0.0872,-0.0819,-0.0771,-0.0673,0,0,0,0,0.0038,0.0029,-0.0004,-0.0052,-0.0154,-0.0288,-0.0508,-0.0571,-0.0748,-0.079,-0.0892,-0.0861,-0.0833,-0.0795,-0.0959,-0.0959,-0.0959,-0.0959,-0.0959,0.0139,0.0071,0.0027,-0.0084,-0.0158,-0.0358,-0.0455,-0.0586,-0.0719,-0.0759,-0.0803,-0.0724,-0.0682,-0.0834,-0.0833,-0.0833,-0.0833,-0.0832,-0.0832,0.0157,0.0122,0.0045,-0.0027,-0.0145,-0.0252,-0.0428,-0.0531,-0.0614,-0.0708,-0.0687,-0.0723,-0.0824,-0.0825,-0.0827,-0.0828,-0.0828,-0.0829,-0.0829,0.0223,0.0181,0.0139,0.004,-0.0049,-0.0219,-0.029,-0.0436,-0.0522,-0.0528,-0.053,-0.0658,-0.0648,-0.0551,-0.055,-0.055,-0.0549,-0.0549,-0.0549,0.0296,0.0234,0.0204,0.0094,0.0035,-0.0067,-0.0236,-0.0287,-0.0414,-0.0404,-0.0524,-0.0629,-0.0638,-0.0633,-0.0541,-0.0543,-0.0544,-0.0544,-0.0545,0.0296,0.0319,0.0262,0.0214,0.0079,0.0009,-0.0132,-0.019,-0.0209,-0.02,-0.0333,-0.0346,-0.0365,-0.0381,-0.0367,-0.0194,-0.0192,-0.0191,0,0.0336,0.0331,0.03,0.0241,0.015,0.004,0.0002,-0.006,-0.0122,-0.0096,-0.0219,-0.0368,-0.0378,-0.0405,-0.0417,-0.0402,0,0,0,0.0321,0.0328,0.0317,0.0285,0.0176,0.0082,-0.0007,0.0001,-0.0105,-0.0092,-0.0153,-0.0163,-0.0428,-0.0519,-0.0579,-0.0591,-0.0585,0,0]},{"header":{"parameterUnit":"m.s-1","parameterCategory":2,"la1":30.2992,"la2":30.254,"lo1":-89.0895,"lo2":-89.0443,"dy":0.0025,"dx":0.0025,"nx":19,"ny":19,"refTime":"2026-04-25T03:00:00:Z","depth":"4","parameterNumber":3,"parameterNumberName":"V-component_of_CURRENTS"},"data":[0,0,0,-0.0351,-0.0354,-0.0453,-0.0453,-0.043,-0.0429,0,0,0,0,0,0,0,0,0,0,0,-0.0288,-0.0288,-0.0351,-0.0354,-0.0453,-0.0453,-0.043,-0.0429,0,0,0,0,0,0,0,0,0,0,0,-0.0288,-0.0288,-0.0289,-0.0355,-0.0453,-0.0453,-0.043,-0.0389,0,0,0,0,0,0,0,0,0,0,-0.031,-0.0288,-0.0288,-0.0289,-0.0355,-0.0453,-0.0453,-0.0388,-0.0391,-0.0347,0,-0.0356,0,-0.0408,-0.0426,-0.0425,0,0,0,-0.0339,-0.0286,-0.031,-0.0289,-0.0357,-0.0453,-0.0404,-0.0391,-0.0394,-0.035,-0.0357,-0.0358,-0.0408,-0.0425,-0.0425,-0.0336,-0.0335,0,0,-0.0333,-0.0307,-0.0308,-0.0312,-0.0372,-0.0401,-0.0407,-0.0394,-0.039,-0.0357,-0.0359,-0.0408,-0.0425,-0.0424,-0.0336,-0.0336,0,0,0,-0.0328,-0.0303,-0.0331,-0.0311,-0.0351,-0.0404,-0.0412,-0.0391,-0.0399,-0.0359,-0.0407,-0.0425,-0.0424,-0.0337,-0.0336,-0.0304,0,0,0,-0.0324,-0.0302,-0.0328,-0.0313,-0.0352,-0.0397,-0.0408,-0.0399,-0.0402,-0.0408,-0.0425,-0.0423,-0.0338,-0.0337,-0.0307,-0.0345,0,0,0,-0.0285,-0.0299,-0.0306,-0.0312,-0.0366,-0.0399,-0.0408,-0.0402,-0.0431,-0.0425,-0.0423,-0.0338,-0.0337,-0.0309,-0.0347,-0.0253,0,0,0,-0.026,-0.029,-0.0305,-0.0345,-0.0365,-0.0447,-0.0409,-0.0432,-0.0428,-0.0424,-0.0338,-0.0336,-0.0309,-0.0347,-0.0255,-0.0276,0,0,0,-0.0291,-0.0293,-0.0317,-0.0335,-0.0421,-0.0432,-0.0482,-0.0436,-0.0385,-0.033,-0.0329,-0.0306,-0.0347,-0.0254,-0.0195,0,0,0,0,-0.0323,-0.0338,-0.037,-0.0412,-0.0468,-0.0504,-0.0495,-0.0443,-0.0338,-0.0382,-0.0287,-0.0315,-0.0256,-0.0273,-0.033,-0.033,-0.033,-0.033,-0.033,-0.0328,-0.0357,-0.0407,-0.0456,-0.0498,-0.0527,-0.0504,-0.0418,-0.0367,-0.028,-0.0271,-0.0168,-0.0184,-0.0225,-0.0225,-0.0225,-0.0225,-0.0225,-0.0225,-0.037,-0.0387,-0.0414,-0.0475,-0.0504,-0.053,-0.0473,-0.0402,-0.0257,-0.0239,-0.0179,-0.0221,-0.0221,-0.0222,-0.0222,-0.0223,-0.0223,-0.0223,-0.0223,-0.036,-0.0374,-0.041,-0.0467,-0.0487,-0.0508,-0.0451,-0.0373,-0.0236,-0.0177,-0.0107,-0.0136,-0.0154,-0.0084,-0.0083,-0.0083,-0.0083,-0.0083,-0.0083,-0.0335,-0.0376,-0.0399,-0.0457,-0.0474,-0.047,-0.0414,-0.033,-0.0202,-0.0104,-0.0133,-0.012,-0.0125,-0.0145,-0.0079,-0.0079,-0.008,-0.008,-0.008,-0.0333,-0.0336,-0.0372,-0.0395,-0.0436,-0.0442,-0.0407,-0.0256,-0.0127,-0.0008,-0.0039,-0.0042,-0.0053,-0.0059,-0.0077,0.0011,0.0011,0.0011,0,-0.0297,-0.0312,-0.0326,-0.0354,-0.0378,-0.041,-0.0298,-0.021,-0.007,-0.0068,-0.0085,-0.0126,-0.0126,-0.0149,-0.0153,-0.018,0,0,0,-0.0279,-0.0279,-0.0268,-0.0306,-0.0348,-0.0291,-0.0265,-0.0202,-0.0118,-0.0015,0.0011,0.0011,-0.0097,-0.0066,-0.009,-0.0096,-0.0128,0,0]}]]